CDT,Max TemperatureF,Mean TemperatureF,Min TemperatureF,Max Dew PointF,MeanDew PointF,Min DewpointF,Max Humidity, Mean Humidity, Min Humidity, Max Sea Level PressureIn, Mean Sea Level PressureIn, Min Sea Level PressureIn, Max VisibilityMiles, Mean VisibilityMiles, Min VisibilityMiles, Max Wind SpeedMPH, Mean Wind SpeedMPH, Max Gust SpeedMPH,PrecipitationIn, CloudCover, Events, WindDirDegrees
2013-8-1,91,82,73,75,73,70,100,75,49,30.01,29.98,29.94,10,8,2,16,5,20,0.23,4,Rain-Thunderstorm,37
2013-8-2,92,81,70,73,70,67,94,69,44,30.03,30.00,29.96,10,8,2,8,2,10,0.00,0,,341
2013-8-3,92,82,71,76,73,70,100,80,60,30.06,30.03,29.99,10,8,5,12,2,15,T,2,Rain-Thunderstorm,241
2013-8-4,92,83,74,76,74,71,100,76,52,30.08,30.05,30.00,10,7,1,14,4,17,0.00,4,,4
2013-8-5,91,83,74,76,72,69,94,77,59,30.06,30.01,29.97,10,9,4,13,2,15,0.00,1,,329
2013-8-6,92,83,73,77,74,72,94,79,64,30.00,29.97,29.94,10,7,0,20,2,25,1.08,3,Fog-Rain-Thunderstorm,47
2013-8-7,93,83,73,78,74,72,100,82,64,30.01,29.97,29.91,10,7,2,14,3,18,0.00,3,,132
2013-8-8,94,85,75,77,75,72,88,72,56,30.00,29.96,29.92,10,9,7,13,5,17,0.00,0,Thunderstorm,151
2013-8-9,93,85,76,75,74,72,94,75,56,30.07,30.02,29.97,10,10,8,17,5,23,0.00,1,Thunderstorm,159
2013-8-10,92,84,75,77,75,73,94,77,60,30.12,30.07,30.05,10,8,1,16,2,22,0.41,3,Rain-Thunderstorm,337
2013-8-11,92,83,73,77,74,72,94,75,56,30.17,30.12,30.05,10,9,6,9,2,13,0.00,2,Thunderstorm,228
2013-8-12,91,83,74,76,74,70,100,80,60,30.13,30.06,29.98,10,8,1,28,4,41,0.48,3,Rain-Thunderstorm,207
2013-8-13,89,81,73,77,74,71,100,82,63,30.02,29.97,29.91,10,9,2,16,3,22,0.16,4,Rain-Thunderstorm,220
2013-8-14,85,78,70,73,71,63,100,81,61,30.00,29.96,29.93,10,8,0,15,6,20,1.07,6,Fog-Rain-Thunderstorm,12
2013-8-15,87,76,65,70,65,62,87,69,51,30.03,29.99,29.95,10,10,7,13,5,21,0.00,3,,31
2013-8-16,79,73,67,67,66,64,90,79,67,30.07,30.03,30.00,10,10,8,12,5,14,0.00,6,,69
2013-8-17,79,73,67,67,66,64,93,78,62,30.10,30.06,30.02,10,10,7,9,4,14,0.00,6,,93
2013-8-18,77,74,70,72,69,66,93,86,79,30.15,30.10,30.05,10,8,1,13,4,17,0.16,8,Rain,77
2013-8-19,87,80,72,74,72,70,93,77,61,30.09,30.05,29.99,10,9,2,12,4,36,0.28,6,Rain,96
2013-8-20,88,79,70,76,73,69,100,82,63,30.12,30.08,30.03,10,9,7,10,2,14,0.00,3,,116
2013-8-21,90,82,73,75,73,71,94,75,56,30.19,30.13,30.07,10,10,8,13,2,23,0.00,3,,185
2013-8-22,91,83,74,75,73,70,94,77,59,30.14,30.08,30.01,10,10,9,9,2,14,0.00,2,Thunderstorm,68
2013-8-23,93,83,72,75,72,68,93,69,44,30.09,30.03,29.98,10,10,8,10,3,12,T,1,Thunderstorm,124
2013-8-24,91,82,72,74,72,71,94,77,59,30.17,30.10,30.04,10,9,2,20,2,39,0.15,1,Rain-Thunderstorm,93
2013-8-25,88,80,72,72,70,68,87,71,55,30.28,30.23,30.18,10,9,6,21,5,128,0.00,2,,94
2013-8-26,87,77,67,67,64,60,93,68,42,30.28,30.22,30.15,10,10,8,15,3,21,0.00,1,,71
2013-8-27,88,76,64,70,65,61,93,68,43,30.17,30.12,30.06,10,8,5,13,1,22,0.00,1,,36
2013-8-28,89,78,66,72,68,65,97,74,50,30.11,30.06,30.02,10,8,4,8,1,10,0.00,2,,280
2013-8-29,93,82,70,74,70,68,97,72,47,30.08,30.03,29.98,9,6,2,10,2,14,0.00,0,,318
2013-8-30,94,83,71,76,73,70,93,73,52,30.03,29.97,29.91,10,6,2,10,2,16,0.00,0,,270
2013-8-31,95,84,73,76,74,71,100,73,46,29.96,29.91,29.86,9,6,2,9,2,13,0.00,0,,251